Regional Weather Roundup
Issued by NWS

Home | Current Version | Previous Version | Graphics & Text | Print | Product List | Glossary On
Versions: 1 2 3 4 5 6 7 8 9 10 11 12 13 14 15 16 17 18 19 20 21 22 23 24 25 26 27 28 29 30 31 32 33 34 35 36 37 38 39 40 41 42 43 44 45 46 47 48 49 50
000
ASUS45 KTFX 290710
RWRMT
MONTANA REGIONAL WEATHER ROUNDUP
NATIONAL WEATHER SERVICE GREAT FALLS MT
100 AM MDT SAT AUG 29 2015

NOTE: "FAIR" INDICATES FEW OR NO CLOUDS BELOW 12000 FEET WITH NO
SIGNIFICANT WEATHER AND/OR OBSTRUCTIONS TO VISIBILITY.

MTZ001>007-043-290800-
WEST OF THE DIVIDE

CITY           SKY/WX    TMP DP  RH WIND       PRES   REMARKS
KALISPELL      MOSUNNY   53  42  66 N3        29.93F HAZE
MISSOULA       CLOUDY    63  49  60 MISG      29.96F HAZE
BUTTE          CLOUDY    62  41  46 SE5       30.14F HAZE
MULLAN PASS    PTCLDY    59  37  44 S7        30.07F HAZE
DEER LODGE       N/A     70  39  32 CALM      30.10F
EUREKA           N/A     63  43  48 CALM      29.91F
HAMILTON         N/A     66  46  48 E6        29.99R
LIBBY            N/A     59  43  55 CALM      29.92S
PLAINS           N/A     58  43  57 CALM      29.94F
RONAN            N/A     56  45  66 CALM      29.99F
$$

MTZ008-052>055-290800-
SOUTHWEST MONTANA

CITY           SKY/WX    TMP DP  RH WIND       PRES   REMARKS
BOZEMAN        MOCLDY    64  44  48 S8        30.07R HAZE
DILLON         CLOUDY    67  38  34 CALM      30.10S HAZE
W YELLOWSTONE  MOCLDY    48  32  53 CALM      30.25S
$$

MTZ009-010-012-014-046-048-049-054-290800-
EAST SLOPES AND CENTRAL MONTANA

CITY           SKY/WX    TMP DP  RH WIND       PRES   REMARKS
CUT BANK       CLOUDY    67  38  34 W14       29.96S HAZE
GREAT FALLS    CLOUDY    71  41  33 S6        29.98S HAZE
MALMSTROM AFB  CLOUDY    70  42  35 S5        29.97S
HELENA         CLOUDY    73  41  31 CALM      30.04R SMOKE
CONRAD           N/A     68  45  43 S2        29.99S
$$

MTZ011-013-016-021-045-047-050-051-290800-
NORTH CENTRAL MONTANA

CITY           SKY/WX    TMP DP  RH WIND       PRES   REMARKS
HAVRE          CLOUDY    74  43  32 SW8       29.90S HAZE
LEWISTOWN      CLOUDY    68  40  35 S8        30.04F HAZE
N BAR RANCH      N/A     72  39  30 W7        30.08S
CHINOOK          N/A     72  46  40 CALM      29.89S
FORT BENTON      N/A     75  43  31 SW5       29.94S
$$

MTZ017>020-022>027-061-062-290800-
NORTHEAST MONTANA

CITY           SKY/WX    TMP DP  RH WIND       PRES   REMARKS
GLASGOW        PTCLDY    64  42  44 E12       29.89F HAZE
JORDAN           N/A     63  40  42 E5        29.93S
SIDNEY         CLOUDY    57  48  72 S6        29.93S
WOLF POINT     CLOUDY    55  42  61 CALM      29.91F HAZE
MALTA            N/A     74  42  31 CALM      29.86R
PLENTYWOOD       N/A     64  46  52 E7        29.91F
POPLAR           N/A     63  43  48 CALM      29.92S
$$

MTZ028>42-056>058-290800-
SOUTHCENTRAL AND SOUTHEAST MONTANA

CITY           SKY/WX    TMP DP  RH WIND       PRES   REMARKS
BAKER          CLOUDY    59  48  67 CALM      30.02S HAZE
BILLINGS       MOCLDY    75  39  27 S7        30.00R
LIVINGSTON     PTCLDY    63  40  42 N6        30.06R
MILES CITY     CLEAR     66  43  43 SE9       29.97R HAZE
EKALAKA          N/A     68  39  34 SE8       30.03F
FORSYTH          N/A     73  39  29 SE6       29.95F
LAUREL           N/A     67  39  35 W3        29.99S
$$

REGIONAL REPORTS...DAKOTAS

CITY           SKY/WX    TMP DP  RH WIND       PRES   REMARKS
WILLISTON      CLOUDY    61  49  64 S3        29.93R HAZE
MINOT          CLOUDY    65  60  84 SE3       29.87F
DICKINSON      CLOUDY    58  47  66 S3        29.96S HAZE
CROSBY           N/A     59  57  94 S9        29.90F FOG
BISMARCK       CLEAR     64  63  96 CALM      29.91F
GRAND FORKS    CLEAR     65  64  97 S6        29.87F
FARGO          CLEAR     68  62  81 S12       29.92F
BUFFALO SD       N/A     61  48  62 S6        29.98S
RAPID CITY     CLEAR     60  56  86 NW3       30.07F
$$

REGIONAL REPORTS...WYOMING/IDAHO/WASHINGTON

CITY           SKY/WX    TMP DP  RH WIND       PRES   REMARKS
GILLETTE       PTCLDY    58  45  62 E5        30.11F
SHERIDAN       PTCLDY    57  46  66 CALM      30.07S
BUFFALO WY     PTCLDY    66  40  38 W9        30.15F
CODY           CLEAR     66  39  37 SW9       30.13S
YELLOWSTONE LA   N/A     42  35  76 NW3       30.37S
IDAHO FALLS    MOCLDY    61  50  67 NE3       30.08S
SALMON         MOCLDY    68  45  42 W3        30.00S
BOISE          CLOUDY    80  40  23 S12       29.85R
SPOKANE        CLOUDY    71  45  39 NE6       29.83F
$$

REGIONAL REPORTS...ALBERTA

CITY           SKY/WX    TMP DP  RH WIND       PRES   REMARKS
EDMONTON       CLEAR     61  45  55 W8        29.67R
CALGARY        MOCLDY    66  45  45 SW5       29.81S
LETHBRIDGE     PTCLDY    59  43  55 SW10      29.88S
MEDICINE HAT   CLEAR     70  45  40 S10       29.82F
WATERTON GATE    N/A     54  41  62 NE3         N/A
MILK RIVER       N/A     63  41  45 W9          N/A
ONEFOUR          N/A     77  36  22 W15G21      N/A
$$

REGIONAL REPORTS...SASKATCHEWAN

CITY           SKY/WX    TMP DP  RH WIND       PRES   REMARKS
SWIFT CURRENT  CLEAR     70  45  40 S10G18    29.84F HAZE
REGINA         CLOUDY    59  55  88 SE7       29.85S
SASKATOON      MOCLDY    70  59  68 S12       29.74F
CYPRESS HILLS    N/A     70  36  28 SW8         N/A
VAL MARIE        N/A     63  46  55 S6          N/A
ROCKGLEN         N/A     64  43  45 SW10        N/A
$$



USA.gov is the U.S. government's official web portal to all federal, state and local government web resources and services.